2021-106E (49473 NORAD) Tracking and Keplerian Element Data

This shows tracking and keplerian element data for the satellite.

Feedback or suggestion? Click here.




ElementValue
Catalog49473
Name2021-106E
Epoch Orbit68
Epoch Day326.40607681
Epoch Year2021
RAAN348.711
Inclination42.0165
Eccentricity0.00882
Argument of Perigee105.3765
Mean Anonmoly348.1164
Mean Motion16.23509839
Decay Rate0.07089402
L11 49473U 21106E 21326.40607681 .07089402 82868-5 86083-3 0 9998
L22 49473 42.0165 348.7110 0088200 105.3765 348.1164 16.23509839 683

Live tracking and technical data element details for 2021-106E (NORAD 49473). 2021-106E can be tracked NOW for your location showing map with azimuth and elevation plus other details from your city location.

Track the satellite on the map from your city or location and see movement details for azimuth, elevation, latitude, longitude, range, height, and movement on the map or in text.







IsCatalogInMostPopularTable: catalog: 49473, numindb: 1
Update: records affected: 1



GetName: 49473 2021-106E

Hit Count: updated at: Wed, 08 Dec 2021 15:50:07 GMT